Location: Betpouey
(42.8833°N, 0.0333°E)
Time: 05:36:11
(UTC+00:00)

Meteor 2-13 Rocket - Pass Details

Date: 26 June 2021
Orbit: 935 x 958 km, 82.5° (Epoch: 26 July)

Event Time Altitude Azimuth Distance (km) Brightness Sun altitude
Exits shadow 02:03:55 - 267° (W) 2,994 6.7 -18.1°
Reaches altitude 10° 02:06:05 10° 285° (WNW) 2,694 6.7 -17.9°
Maximum altitude 02:07:38 11° 300° (WNW) 2,627 6.8 -17.8°
Drops below altitude 10° 02:09:11 10° 315° (NW) 2,696 7.0 -17.6°
Sets 02:14:13 0° 350° (N) 3,645 8.3 -17.2°
